• în România
  • Lista ţărilor
  • Pe 7 zile
  • Temperatura apei
  • Hartă satelitară
  • Meteo pe hartă
  • Widget-uri
  • user-avatar
    Intrare

    Meteo pe oră la Batina

    Astăzi, 26 Iunie, Luni

    Timp Temperatura Precipitaţii Vânt Presiune Umiditate
    00:00 +25°C° 0 mm 1 m/s 672 mmHg 37%
    01:00 +24°C° 0 mm 1 m/s 672 mmHg 36%
    02:00 +24°C° 0 mm 1 m/s 672 mmHg 35%
    03:00 +24°C° 0 mm 2 m/s 671 mmHg 34%
    04:00 +25°C° 0 mm 2 m/s 672 mmHg 32%
    05:00 +26°C° 0 mm 2 m/s 672 mmHg 31%
    06:00 +27°C° 0 mm 2 m/s 672 mmHg 29%
    07:00 +29°C° 0 mm 3 m/s 673 mmHg 25%
    08:00 +32°C° 0 mm 4 m/s 673 mmHg 21%
    09:00 +34°C° 0 mm 5 m/s 674 mmHg 18%
    10:00 +36°C° 0 mm 5 m/s 674 mmHg 16%
    11:00 +37°C° 0 mm 5 m/s 674 mmHg 15%
    12:00 +39°C° 0 mm 6 m/s 674 mmHg 13%
    13:00 +39°C° 0 mm 5 m/s 673 mmHg 13%
    14:00 +39°C° 0 mm 5 m/s 673 mmHg 12%
    15:00 +40°C° 0 mm 5 m/s 673 mmHg 12%
    16:00 +38°C° 0 mm 4 m/s 673 mmHg 13%
    17:00 +37°C° 0 mm 4 m/s 672 mmHg 14%
    18:00 +36°C° 0 mm 3 m/s 672 mmHg 15%
    19:00 +34°C° 0 mm 3 m/s 672 mmHg 19%
    20:00 +31°C° 0 mm 2 m/s 672 mmHg 22%
    21:00 +29°C° 0 mm 1 m/s 672 mmHg 26%
    22:00 +28°C° 0 mm 1 m/s 672 mmHg 27%
    23:00 +28°C° 0 mm 1 m/s 672 mmHg 28%

    Mâine, 27 Iunie, Marţi

    Timp Temperatura Precipitaţii Vânt Presiune Umiditate
    00:00 +27°C° 0 mm 1 m/s 672 mmHg 29%
    01:00 +27°C° 0 mm 1 m/s 672 mmHg 29%
    02:00 +26°C° 0 mm 1 m/s 672 mmHg 30%
    03:00 +25°C° 0 mm 1 m/s 671 mmHg 31%
    04:00 +26°C° 0,1 mm 1 m/s 672 mmHg 29%
    05:00 +28°C° 0,1 mm 2 m/s 672 mmHg 27%
    06:00 +29°C° 0,1 mm 2 m/s 672 mmHg 25%
    07:00 +31°C° 0 mm 2 m/s 673 mmHg 22%
    08:00 +32°C° 0 mm 2 m/s 673 mmHg 19%
    09:00 +35°C° 0 mm 2 m/s 674 mmHg 16%
    10:00 +36°C° 0 mm 2 m/s 674 mmHg 15%
    11:00 +37°C° 0 mm 3 m/s 674 mmHg 15%
    12:00 +39°C° 0 mm 3 m/s 674 mmHg 14%
    13:00 +40°C° 0 mm 4 m/s 673 mmHg 14%
    14:00 +40°C° 0 mm 4 m/s 673 mmHg 14%
    15:00 +40°C° 0 mm 5 m/s 673 mmHg 14%
    16:00 +38°C° 0 mm 4 m/s 672 mmHg 15%
    17:00 +37°C° 0 mm 4 m/s 672 mmHg 16%
    18:00 +36°C° 0 mm 4 m/s 672 mmHg 17%
    19:00 +34°C° 0 mm 3 m/s 672 mmHg 20%
    20:00 +33°C° 0 mm 3 m/s 672 mmHg 23%
    21:00 +30°C° 0 mm 2 m/s 672 mmHg 27%
    22:00 +29°C° 0 mm 2 m/s 672 mmHg 29%
    23:00 +28°C° 0 mm 2 m/s 671 mmHg 32%

    Poimâine, 28 Iunie, Miercuri

    Timp Temperatura Precipitaţii Vânt Presiune Umiditate
    00:00 +27°C° 0 mm 2 m/s 671 mmHg 35%
    01:00 +27°C° 0 mm 2 m/s 671 mmHg 34%
    02:00 +26°C° 0 mm 2 m/s 670 mmHg 32%
    03:00 +26°C° 0 mm 2 m/s 670 mmHg 30%
    04:00 +27°C° 0 mm 2 m/s 670 mmHg 27%
    05:00 +28°C° 0 mm 2 m/s 671 mmHg 24%
    06:00 +29°C° 0 mm 3 m/s 671 mmHg 21%
    07:00 +32°C° 0 mm 4 m/s 671 mmHg 18%
    08:00 +34°C° 0 mm 5 m/s 672 mmHg 15%
    09:00 +36°C° 0 mm 7 m/s 672 mmHg 13%
    10:00 +38°C° 0 mm 7 m/s 672 mmHg 12%
    11:00 +39°C° 0 mm 8 m/s 672 mmHg 11%
    12:00 +40°C° 0 mm 9 m/s 672 mmHg 11%
    13:00 +40°C° 0 mm 8 m/s 672 mmHg 10%
    14:00 +40°C° 0 mm 8 m/s 672 mmHg 10%
    15:00 +40°C° 0 mm 8 m/s 671 mmHg 10%
    16:00 +39°C° 0 mm 7 m/s 671 mmHg 12%
    17:00 +38°C° 0 mm 6 m/s 671 mmHg 13%
    18:00 +35°C° 0 mm 6 m/s 671 mmHg 15%
    19:00 +33°C° 0 mm 4 m/s 670 mmHg 24%
    20:00 +29°C° 0 mm 3 m/s 670 mmHg 32%
    21:00 +27°C° 0 mm 2 m/s 670 mmHg 40%
    22:00 +26°C° 0 mm 2 m/s 670 mmHg 46%
    23:00 +25°C° 0 mm 2 m/s 670 mmHg 51%

    29 Iunie, Joi

    Timp Temperatura Precipitaţii Vânt Presiune Umiditate
    00:00 +24°C° 0 mm 2 m/s 670 mmHg 56%
    01:00 +23°C° 0 mm 2 m/s 669 mmHg 59%
    02:00 +23°C° 0 mm 1 m/s 669 mmHg 61%
    03:00 +22°C° 0 mm 1 m/s 669 mmHg 63%
    04:00 +23°C° 0 mm 1 m/s 669 mmHg 59%
    05:00 +24°C° 0 mm 1 m/s 669 mmHg 55%
    06:00 +24°C° 0 mm 1 m/s 670 mmHg 51%
    07:00 +27°C° 0 mm 1 m/s 671 mmHg 41%
    08:00 +30°C° 0 mm 2 m/s 671 mmHg 31%
    09:00 +32°C° 0 mm 2 m/s 672 mmHg 22%
    10:00 +34°C° 0 mm 3 m/s 672 mmHg 18%
    11:00 +36°C° 0 mm 4 m/s 672 mmHg 15%
    12:00 +37°C° 0 mm 5 m/s 672 mmHg 12%
    13:00 +38°C° 0 mm 6 m/s 672 mmHg 11%
    14:00 +38°C° 0 mm 6 m/s 672 mmHg 11%
    15:00 +38°C° 0 mm 6 m/s 672 mmHg 10%
    16:00 +36°C° 0 mm 5 m/s 671 mmHg 12%
    17:00 +35°C° 0 mm 4 m/s 671 mmHg 14%
    18:00 +34°C° 0 mm 3 m/s 671 mmHg 16%
    19:00 +31°C° 0 mm 3 m/s 671 mmHg 23%
    20:00 +28°C° 0 mm 2 m/s 671 mmHg 30%
    21:00 +26°C° 0 mm 2 m/s 670 mmHg 37%
    22:00 +25°C° 0 mm 2 m/s 670 mmHg 41%
    23:00 +25°C° 0 mm 2 m/s 670 mmHg 44%

    30 Iunie, Vineri

    Timp Temperatura Precipitaţii Vânt Presiune Umiditate
    00:00 +24°C° 0 mm 2 m/s 669 mmHg 48%
    01:00 +24°C° 0 mm 2 m/s 669 mmHg 48%
    02:00 +23°C° 0 mm 2 m/s 668 mmHg 49%
    03:00 +23°C° 0 mm 2 m/s 668 mmHg 49%
    04:00 +23°C° 0 mm 2 m/s 668 mmHg 47%
    05:00 +24°C° 0 mm 2 m/s 669 mmHg 44%
    06:00 +25°C° 0 mm 2 m/s 669 mmHg 42%
    07:00 +28°C° 0 mm 3 m/s 670 mmHg 35%
    08:00 +30°C° 0 mm 4 m/s 670 mmHg 27%
    09:00 +34°C° 0 mm 5 m/s 671 mmHg 19%
    10:00 +35°C° 0 mm 7 m/s 671 mmHg 17%
    11:00 +38°C° 0 mm 8 m/s 671 mmHg 15%
    12:00 +39°C° 0 mm 10 m/s 671 mmHg 13%
    13:00 +40°C° 0 mm 10 m/s 670 mmHg 11%
    14:00 +40°C° 0 mm 10 m/s 670 mmHg 10%
    15:00 +40°C° 0 mm 9 m/s 670 mmHg 9%
    16:00 +39°C° 0 mm 9 m/s 669 mmHg 13%
    17:00 +37°C° 0 mm 8 m/s 669 mmHg 17%
    18:00 +35°C° 0 mm 7 m/s 669 mmHg 21%
    19:00 +30°C° 0 mm 6 m/s 669 mmHg 34%
    20:00 +27°C° 0 mm 6 m/s 669 mmHg 47%
    21:00 +23°C° 0 mm 5 m/s 669 mmHg 60%
    22:00 +22°C° 0 mm 5 m/s 669 mmHg 59%
    23:00 +21°C° 0 mm 5 m/s 670 mmHg 59%

    1 Iulie, Sâmbătă

    Timp Temperatura Precipitaţii Vânt Presiune Umiditate
    00:00 +21°C° 0 mm 4 m/s 670 mmHg 58%
    01:00 +20°C° 0 mm 4 m/s 670 mmHg 61%
    02:00 +20°C° 0 mm 4 m/s 670 mmHg 64%
    03:00 +19°C° 0 mm 4 m/s 669 mmHg 67%
    04:00 +19°C° 0 mm 4 m/s 670 mmHg 69%
    05:00 +19°C° 0 mm 4 m/s 670 mmHg 70%
    06:00 +19°C° 0 mm 5 m/s 670 mmHg 72%
    07:00 +21°C° 0 mm 5 m/s 671 mmHg 64%
    08:00 +22°C° 0 mm 5 m/s 671 mmHg 56%
    09:00 +25°C° 0 mm 5 m/s 672 mmHg 48%
    10:00 +26°C° 0 mm 5 m/s 672 mmHg 44%
    11:00 +27°C° 0 mm 4 m/s 673 mmHg 40%
    12:00 +28°C° 0 mm 4 m/s 673 mmHg 36%
    13:00 +28°C° 0 mm 5 m/s 673 mmHg 36%
    14:00 +28°C° 0 mm 5 m/s 673 mmHg 36%
    15:00 +27°C° 0 mm 6 m/s 673 mmHg 37%
    16:00 +26°C° 0 mm 6 m/s 673 mmHg 40%
    17:00 +24°C° 0 mm 6 m/s 672 mmHg 43%
    18:00 +23°C° 0 mm 6 m/s 672 mmHg 46%
    19:00 +21°C° 0 mm 5 m/s 672 mmHg 51%
    20:00 +20°C° 0 mm 5 m/s 673 mmHg 56%
    21:00 +19°C° 0 mm 5 m/s 673 mmHg 60%
    22:00 +18°C° 0 mm 4 m/s 673 mmHg 65%
    23:00 +17°C° 0 mm 4 m/s 673 mmHg 69%
    Arată mai mult